Theta_e
313 314 315 315 314 317 317 315 313 312 312 312 311 311 310 307 307 309 315 315 319 319 319 318 320 324 323 323 325 321 329 332 332 331 331 325 325 321 322 326 325 323 326 328 333
312 313 313 314 314 314 316 316 315 313 312 312 312 311 310 309 308 311 305 307 313 319 320 323 320 324 320 322 327 324 327 330 327 327 329 327 325 322 324 326 326 327 331 331 333
311 312 312 313 314 314 313 313 316 316 313 313 312 311 311 310 310 305 305 302 302 311 320 323 324 325 325 322 329 326 327 325 328 326 326 327 326 325 323 325 323 325 325 331 330
309 310 311 312 313 314 315 312 312 314 315 313 312 311 311 310 299 318 320 318 307 307 321 321 323 326 325 323 324 330 327 326 328 326 326 328 326 328 322 323 321 322 323 330 329
307 307 309 310 311 313 313 312 310 311 315 314 312 312 311 311 310 308 311 313 317 319 323 318 324 323 324 322 322 329 327 327 327 325 325 325 327 327 326 323 322 323 323 329 329
304 305 307 308 308 311 313 312 311 310 312 315 313 312 311 311 308 308 306 307 316 314 322 319 319 322 323 322 322 320 324 326 324 325 324 327 325 326 325 324 323 323 323 326 329
304 304 305 306 308 308 312 312 312 310 311 315 314 312 312 311 309 306 308 314 320 313 319 320 321 322 323 326 322 322 325 322 320 321 322 323 324 325 322 325 325 323 322 321 324
303 304 305 305 306 307 310 312 312 310 311 314 314 313 313 312 311 310 308 316 321 317 320 320 320 320 321 321 321 324 323 325 321 320 320 321 323 317 319 323 324 323 320 319 318
301 302 304 305 305 307 309 310 311 311 310 311 314 313 315 311 310 310 310 308 321 320 320 320 319 320 321 320 322 321 318 322 320 318 320 321 322 318 316 320 321 319 316 315 314
300 301 302 304 305 304 306 309 310 310 311 311 313 314 311 311 310 310 309 309 317 320 320 320 318 319 319 323 315 319 322 319 319 318 318 320 321 318 316 316 315 314 314 313 314
299 301 302 303 304 306 306 308 310 310 310 311 315 313 312 310 309 309 309 308 311 318 317 317 317 318 318 319 315 312 318 319 317 318 321 319 319 319 316 314 314 314 312 311 312
299 300 302 303 304 305 306 308 309 309 310 310 313 313 310 309 308 307 308 309 316 318 315 318 318 313 314 317 319 317 318 317 317 317 318 316 316 314 313 312 311 311 310 309 310
298 300 301 302 303 304 306 306 308 308 311 310 311 313 310 309 309 308 307 310 316 317 317 313 312 313 314 317 321 321 319 316 317 317 316 317 317 314 313 313 312 311 311 310 311
298 300 300 302 302 303 304 304 306 307 310 310 312 313 312 309 310 308 307 312 314 317 315 314 310 313 315 316 319 320 318 316 317 318 317 315 311 310 312 314 314 313 311 311 311
299 299 300 301 301 303 303 305 306 306 312 310 311 311 312 311 308 308 307 312 313 313 314 314 312 312 315 315 317 315 317 319 316 316 318 316 318 314 315 316 314 312 311 310 309
299 300 301 301 301 302 303 304 306 309 311 311 312 314 313 311 310 306 307 310 311 313 312 311 311 312 312 313 315 313 315 317 316 320 319 315 316 312 310 313 314 313 312 311 311
300 301 300 300 302 301 302 305 307 309 307 310 312 313 313 312 311 310 310 313 315 317 317 313 313 312 313 316 315 316 316 313 318 320 316 310 315 312 311 311 311 310 311 311 311
301 301 300 300 300 301 302 306 307 307 306 308 311 313 314 311 312 311 310 313 313 310 312 314 315 312 311 316 316 317 316 311 310 315 315 313 318 314 313 312 311 309 310 310 308
299 300 299 299 298 299 302 305 305 305 307 311 310 313 313 312 312 311 311 312 314 310 308 312 312 308 311 314 314 316 319 313 314 308 311 313 313 313 312 312 312 312 309 307 306
299 299 299 300 299 297 299 305 307 305 307 310 311 310 313 312 313 312 311 310 312 311 305 307 309 309 311 313 314 314 314 318 317 316 318 314 316 315 313 311 310 309 307 306 305
298 298 297 299 298 296 300 300 301 300 304 309 308 312 311 312 312 311 310 309 310 311 307 305 306 308 312 314 314 315 316 314 313 317 316 312 314 310 312 312 309 307 306 304 302
295 297 297 298 298 299 299 299 302 303 301 304 307 308 310 311 313 313 310 308 308 309 310 305 305 310 312 307 310 312 313 314 316 314 315 313 312 308 308 309 306 307 304 303 301
297 295 298 298 299 298 297 299 300 301 303 305 306 308 307 309 312 311 309 307 307 307 309 307 308 307 311 311 310 313 313 312 311 308 312 315 313 307 307 305 306 304 303 300 298
295 293 297 299 292 294 296 296 298 300 302 303 302 303 307 310 308 311 308 306 306 307 309 309 307 309 310 308 309 313 313 313 313 314 313 313 310 309 306 303 303 302 300 298 297
296 297 290 297 298 287 294 296 300 299 298 301 302 302 304 310 311 310 308 307 306 308 309 309 311 307 306 306 308 310 311 312 313 313 313 311 311 311 305 303 302 300 296 295 292
297 296 296 292 290 293 291 294 299 299 300 300 301 303 303 303 307 310 308 308 308 307 309 310 310 306 303 305 307 307 309 310 313 313 312 310 309 307 304 298 297 296 295 292 290
295 294 296 296 289 296 294 295 297 298 300 300 301 302 303 303 302 306 307 307 306 307 310 310 311 311 311 306 307 308 308 310 310 311 313 314 312 304 298 296 293 290 288 287 286
Wind_Speed
20 20 20 20 20 21 20 18 16 14 11 9 9 8 10 12 14 15 10 11 4 6 8 13 11 10 5 4 4 2 4 1 3 4 3 1 2 1 0 4 1 3 2 3 8
19 20 21 21 21 21 20 21 19 16 13 11 9 8 7 8 11 15 22 19 17 11 7 6 4 5 3 3 3 4 3 7 3 3 2 0 1 4 2 2 2 2 3 3 18
19 19 20 22 23 22 22 20 19 19 17 13 10 8 4 2 3 7 6 16 24 16 10 3 3 0 1 1 1 2 5 4 3 4 1 3 1 2 4 3 6 7 2 3 12
21 19 20 21 23 24 22 20 21 19 19 16 13 9 4 3 6 3 5 9 8 19 11 5 2 4 3 5 3 3 5 4 2 1 2 1 3 4 5 4 3 2 2 5 7
23 22 21 21 22 23 25 23 21 22 20 19 16 13 7 2 7 4 5 14 4 16 14 6 5 5 5 4 4 4 4 5 4 2 2 1 4 5 5 8 4 4 3 7 8
22 24 22 21 22 23 26 23 21 21 21 21 19 17 6 8 11 13 18 12 4 20 9 8 5 4 3 3 6 3 5 3 3 5 3 3 4 3 4 5 8 5 7 6 8
23 23 24 23 22 23 24 26 23 21 22 22 21 20 11 13 8 1 4 2 5 20 8 10 3 2 2 1 3 2 3 3 4 4 5 4 8 10 8 3 6 7 7 7 11
22 24 21 21 21 22 23 24 25 22 22 22 22 21 8 13 31 18 6 2 4 14 13 9 5 2 2 3 3 4 3 3 3 9 6 9 18 1 8 6 10 10 8 8 9
24 24 22 21 21 20 21 22 23 21 21 20 18 12 5 15 15 20 23 13 5 6 9 7 3 3 1 4 2 2 3 5 6 8 4 8 9 4 2 8 8 8 9 7 8
25 26 25 21 21 22 19 19 19 16 18 18 15 7 5 5 9 13 14 21 4 11 6 5 3 4 6 9 9 6 4 5 6 2 6 6 12 9 7 4 8 8 9 9 10
27 25 25 22 22 20 18 8 5 5 14 14 5 5 10 11 13 14 19 12 5 6 11 11 6 19 19 15 6 6 5 8 2 3 3 8 12 19 9 5 8 12 8 10 12
29 28 25 24 22 22 23 8 10 3 6 23 11 18 6 12 5 5 23 8 7 10 7 8 23 5 8 7 7 4 4 5 4 3 3 5 11 14 10 9 9 10 10 10 9
32 28 27 26 25 25 27 29 18 14 4 6 23 12 8 11 7 15 21 7 15 16 17 10 3 14 9 8 13 13 16 4 3 3 3 5 16 10 10 5 7 8 9 7 11
33 29 28 27 24 29 27 34 29 15 4 9 11 10 15 5 6 8 26 14 6 19 9 11 12 7 5 18 15 16 7 7 5 3 5 3 10 7 4 5 5 8 8 9 12
31 29 28 28 15 21 30 25 29 12 14 11 12 15 11 16 11 6 20 6 14 10 11 9 9 16 11 9 12 6 8 12 6 4 3 7 4 5 1 4 6 7 9 9 6
26 26 26 25 27 15 29 30 23 11 9 10 14 17 19 10 7 7 14 2 3 5 17 6 1 11 14 7 16 7 5 4 3 9 10 16 8 17 11 6 5 6 7 4 3
23 25 26 23 8 33 17 14 12 22 7 6 16 20 26 15 15 12 21 21 13 8 12 16 6 3 5 8 5 8 8 3 6 7 13 10 8 21 3 4 6 8 8 4 3
19 22 25 26 16 19 21 13 20 24 12 4 13 21 27 16 14 16 23 21 18 8 7 12 10 15 5 8 8 22 14 5 7 5 8 4 10 17 4 12 12 9 4 5 6
14 17 19 23 21 21 8 15 9 10 9 15 14 24 17 13 7 12 22 31 26 20 10 12 12 5 7 4 14 15 17 8 3 1 2 5 7 10 7 7 5 3 6 7 7
9 8 8 18 25 6 5 11 4 4 6 12 20 15 21 21 18 19 22 24 25 23 3 7 1 5 7 5 9 9 7 8 7 8 9 4 4 9 2 6 5 6 8 8 6
6 3 5 20 16 2 3 3 1 6 7 8 11 9 19 14 15 19 24 14 27 26 15 7 4 0 12 15 22 8 9 6 4 7 5 3 7 7 11 6 8 8 9 8 7
4 2 5 26 4 2 3 5 2 2 3 4 1 3 6 18 16 16 18 13 29 24 25 7 5 4 12 4 12 19 16 19 6 10 4 1 5 4 7 8 10 9 8 6 8
3 1 8 13 4 2 2 1 3 3 4 2 3 3 4 6 10 12 13 18 24 17 19 13 5 4 2 1 0 11 13 14 5 2 11 6 8 1 3 9 5 8 7 8 9
3 2 2 3 1 6 4 3 3 4 2 1 4 4 5 5 11 11 11 4 15 23 19 19 6 16 15 8 7 12 18 18 20 12 17 11 8 3 3 7 8 8 9 8 9
4 3 4 5 8 3 6 6 8 4 1 3 3 6 3 3 11 11 10 7 11 21 21 12 15 10 12 3 5 8 18 20 17 24 14 19 13 17 9 10 7 7 8 9 8
4 4 2 1 3 8 7 6 10 5 8 7 7 10 6 5 15 16 18 9 13 18 21 9 4 8 1 3 6 4 13 18 22 23 19 4 13 5 6 8 6 7 8 8 7
6 3 3 5 4 6 8 12 11 6 4 6 5 1 5 18 18 16 14 14 12 21 17 9 9 9 19 5 3 2 21 15 17 16 20 17 17 6 5 9 7 7 7 7 6
Wind_Direction
269 270 267 263 261 252 246 243 244 249 255 255 272 290 291 287 286 286 256 241 222 282 293 292 300 351 17 28 21 101 66 229 220 168 238 201 148 105 178 123 121 191 184 221 171
269 264 264 261 259 255 252 246 247 244 245 246 255 274 294 300 303 276 254 253 242 260 294 332 305 346 22 6 16 91 130 213 195 226 245 21 210 183 141 129 221 248 224 175 165
282 269 266 260 254 254 252 251 252 245 242 240 238 249 269 334 318 252 312 263 249 239 242 286 279 197 171 87 225 140 178 222 261 195 216 324 335 162 151 223 216 208 222 143 175
277 279 269 263 254 248 249 250 247 250 242 237 226 227 221 160 233 98 36 359 242 221 221 185 143 150 171 187 194 183 216 193 254 217 121 218 341 311 177 221 273 125 95 182 197
271 275 276 268 261 250 243 249 250 242 241 233 223 212 175 206 255 240 302 356 192 196 199 164 155 150 182 195 161 207 205 190 242 219 263 156 235 232 245 264 265 329 264 212 217
270 270 273 273 267 256 245 245 242 243 236 227 221 207 182 228 246 268 276 316 198 187 195 171 189 193 192 215 177 217 198 219 224 249 255 234 264 163 242 247 255 248 231 245 226
270 269 267 269 268 262 250 246 244 239 233 227 218 207 217 221 238 278 335 296 243 194 161 195 138 166 156 172 232 229 290 334 206 220 242 164 276 232 222 221 244 233 253 261 241
266 267 265 263 266 258 253 246 241 238 233 228 219 201 236 227 243 250 294 280 243 203 203 190 132 76 178 284 22 172 167 199 236 175 239 144 260 154 218 197 246 260 260 262 261
260 263 261 259 258 258 252 247 242 238 236 227 208 194 240 182 200 232 239 250 204 189 203 213 140 197 175 109 11 270 216 221 300 204 164 188 269 266 177 174 233 261 271 269 276
262 260 259 250 252 252 255 242 242 241 236 235 221 182 200 183 154 210 228 215 236 134 143 171 163 191 191 187 212 192 198 235 210 259 218 209 258 253 265 233 240 242 262 283 278
257 256 257 251 244 241 244 232 183 219 211 209 167 176 137 153 175 184 181 167 229 135 188 189 187 211 193 205 212 181 187 204 231 260 208 235 247 263 260 224 255 261 243 249 261
249 252 247 245 244 239 228 226 200 110 202 223 232 207 134 165 127 176 169 149 177 184 142 184 225 157 169 189 202 181 191 215 295 241 210 289 266 264 249 236 221 243 250 245 252
242 243 241 240 239 233 226 227 223 247 245 204 218 209 173 188 185 185 174 167 183 185 194 198 207 165 169 179 206 224 225 142 187 355 299 347 289 240 259 226 221 239 235 245 239
235 234 233 233 233 229 228 222 227 219 244 204 187 213 195 168 223 188 192 167 176 204 173 233 236 192 190 204 187 223 178 165 183 98 241 131 278 230 229 249 208 241 240 237 247
228 231 229 222 216 207 224 210 211 174 232 184 171 164 179 194 122 220 187 159 182 179 169 210 160 199 214 201 181 220 152 195 164 177 29 245 286 288 240 282 266 259 252 248 271
225 222 224 225 215 202 207 192 191 221 218 171 151 169 164 184 196 133 175 114 142 157 214 199 218 176 208 161 182 134 78 81 116 223 243 234 201 265 234 199 218 247 253 294 277
227 223 218 220 238 210 212 186 208 221 153 203 168 172 176 177 189 169 177 193 183 174 198 209 217 238 157 146 132 166 134 184 214 210 239 152 178 246 264 277 240 241 244 147 126
221 218 216 209 208 201 206 203 225 209 203 170 167 179 186 160 187 185 172 190 201 181 165 189 213 209 196 192 186 201 197 164 195 209 233 183 214 236 213 241 269 215 203 143 125
218 215 216 212 212 220 205 213 222 212 156 157 171 175 185 181 149 164 187 190 190 184 163 186 227 241 174 160 170 192 213 199 109 58 89 213 280 303 239 250 259 279 121 150 138
196 170 200 198 193 186 230 218 251 155 155 164 178 187 182 181 176 184 184 198 192 196 161 197 211 185 172 124 233 172 140 195 219 210 230 257 256 231 308 260 196 152 150 151 136
129 145 208 190 171 193 223 254 187 310 295 185 180 166 202 179 185 182 181 181 190 191 197 162 140 341 139 204 197 167 207 213 182 197 207 198 249 218 227 189 173 163 145 150 131
124 171 169 161 190 208 164 163 167 221 304 66 104 128 167 200 198 185 188 186 195 188 194 174 135 155 199 327 211 212 213 204 203 208 211 119 265 303 227 192 157 155 147 138 92
154 161 181 170 219 169 135 233 132 164 277 133 134 185 110 195 211 197 205 211 188 180 183 181 199 131 41 37 205 206 218 211 191 76 202 201 232 91 144 126 123 131 108 69 71
131 165 212 216 153 155 139 223 204 200 213 116 122 98 194 235 203 201 192 161 180 192 190 176 190 208 214 229 133 199 208 208 208 224 229 222 242 241 185 156 149 132 94 88 78
177 204 190 192 200 186 172 186 193 177 78 151 184 185 171 259 205 213 192 151 185 191 194 193 215 208 228 160 195 208 209 207 210 222 216 229 218 236 185 172 153 110 109 93 72
154 159 150 218 123 156 196 216 210 190 157 205 221 160 156 228 271 191 183 156 183 188 192 191 229 183 196 144 178 187 207 205 210 222 225 248 234 174 140 99 107 110 112 97 78
149 214 131 179 141 166 211 206 209 152 245 201 218 76 197 237 241 267 183 181 163 173 185 189 182 179 222 148 82 272 221 198 213 215 208 216 222 157 111 122 128 117 108 102 82